Regional Weather Roundup
Issued by NWS

Home | Current Version | Previous Version | Text Only | Print | Product List | Glossary Off
Versions: 1 2 3 4 5 6 7 8 9 10 11 12 13 14 15 16 17 18 19 20 21 22 23 24 25 26 27 28 29 30 31 32 33 34 35 36 37 38 39 40 41 42 43 44 45 46 47 48 49 50

000
ASUS45 KBOU 020307
RWRCO

WEATHER ROUNDUP FOR COLORADO
NATIONAL WEATHER SERVICE DENVER/BOULDER CO
900 PM MDT FRI AUG 01 2014

NOTE: "FAIR" INDICATES FEW OR NO CLOUDS BELOW 12000 FEET WITH NO
SIGNIFICANT WEATHER AND/OR OBSTRUCTIONS TO VISIBILITY.

COZ001>005-013-030-031-020400-
...NORTHWEST COLORADO...

CITY           SKY/WX    TMP DP  RH WIND       PRES   REMARKS
CRAIG          CLEAR     60  46  59 E6        30.23R
HAYDEN         PTCLDY    66  43  42 E15       30.26R
MEEKER         CLEAR     65  48  54 N5        30.25R
MOUNT WERNER   NOT AVBL
STEAMBOAT SPGS PTCLDY    65  43  44 NE8       30.30R
WALDEN         CLEAR     55  41  58 SE3       30.41R
$$

COZ006>008-011-020400-
...WEST CENTRAL VALLEYS...

CITY           SKY/WX    TMP DP  RH WIND       PRES   REMARKS
GRAND JUNCTION PTCLDY    74  47  38 CALM      30.13S
MONTROSE       PTCLDY    68  51  54 CALM      30.23R
EAGLE          MOCLDY    66  46  48 E8        30.32S
RIFLE          CLEAR     71  45  39 E12       30.21R
DELTA          PTCLDY    69  51  52 CALM      30.19R
NUCLA          PTCLDY    68  52  56 SE9       30.25S
$$

COZ017>023-064>068-020400-
...SOUTHWEST COLORADO...

CITY           SKY/WX    TMP DP  RH WIND       PRES   REMARKS
DURANGO        MOCLDY    62  55  77 E5        30.28R
CORTEZ         MOCLDY    73  49  42 E3        30.19R
PAGOSA SPRINGS CLOUDY    62  45  52 NE8       30.36S
TELLURIDE      MOCLDY    57  48  72 SW3       30.44R
WOLF CREEK PAS NOT AVBL
$$

COZ009-010-012-014-032>034-037-058>063-020400-
...CENTRAL COLORADO...

CITY           SKY/WX    TMP DP  RH WIND       PRES   REMARKS
ASPEN          MOCLDY    58  48  69 SW7       30.38R
BUENA VISTA    MOCLDY    55  50  82 CALM      30.46R
COPPER MTN     CLOUDY    45  36  70 CALM      30.68R
BERTHOUD PASS  FAIR      36  36 100 E17       30.72R
COTTONWOOD PAS MOCLDY    52  43  71 CALM      30.57R
GUNNISON       CLOUDY    61  45  55 E13       30.40R
KREMMLING      MOCLDY    59  45  58 S5        30.40R
LEADVILLE      CLOUDY    47  43  86 S6        30.54S
MONARCH PASS   FOG       39  37  93 NE18      30.75R VSB<1/4
SALIDA         MOCLDY    57  54  89 CALM      30.51R
SUNLIGHT       PTCLDY    48  45  87 E3        30.58S
WILKERSON PASS MOCLDY    41  37  87 NE6       30.67S
$$

COZ069>075-020400-
...SAN LUIS VALLEY/SANGRE DE CRISTO MOUNTAINS...

CITY           SKY/WX    TMP DP  RH WIND       PRES   REMARKS
ALAMOSA        CLOUDY    55  49  80 N5        30.41R
LA VETA PASS   MIX PCPN  45  45 100 E5        30.58S
SAGUACHE       CLOUDY    55  54  94 E5        30.42R
$$

COZ035-036-038>040-020400-
...NORTHERN COLORADO FRONT RANGE...

CITY           SKY/WX    TMP DP  RH WIND       PRES   REMARKS
DENVER INTL AP MOCLDY    69  49  48 S12       30.27R
DMNS CITY PARK   N/A     69  48  47 S7        30.26S
AURORA         MOCLDY    65  50  58 S9        30.29R
FRONT RANGE AP NOT AVBL
ERIE MUNI ARPT PTCLDY    67  50  53 SW3       30.24R
BOULDER MUN AP PTCLDY    68  48  49 SW5       30.25R
CENTENNIAL     PTCLDY    62  49  62 S7        30.30R
BROOMFIELD     MOCLDY    70  50  49 SW5       30.28R
FORT COLLINS   PTCLDY    73  45  35 S5        30.23R
LONGMONT       PTCLDY    66  55  66 W3        30.25R
$$

COZ041-046-047-076>085-087-088-020400-
...PIKES PEAK/PALMER DIVIDE AND SOUTHERN FOOTHILLS...

CITY           SKY/WX    TMP DP  RH WIND       PRES   REMARKS
COLO. SPRINGS  MOCLDY    65  52  62 CALM      30.35R
A. F. ACADEMY  PTCLDY    61  51  69 CALM      30.36R
ELLICOTT       PTCLDY    62  55  77 CALM      30.34R
FALCON         PTCLDY    58  52  81 W5        30.40R
FORT CARSON    MOCLDY    63  55  74 W7        30.32R
LIMON          PTCLDY    65  47  52 S7        30.28R
MONUMENT HILL  PTCLDY    54  50  87 S6        30.39R
TRINIDAD       CLOUDY    60  58  92 W7        30.32S
$$

COZ042>045-048>051-090-091-020400-
...NORTHEAST COLORADO...

CITY           SKY/WX    TMP DP  RH WIND       PRES   REMARKS
GREELEY ARPT   PTCLDY    68  54  60 SE6       30.22S
AKRON          CLEAR     69  53  56 SE9       30.22R
BURLINGTON     PTCLDY    69  52  54 S8        30.22R
WRAY             N/A     74  51  44 CALM      30.16S
STERLING       CLEAR     75  59  57 CALM      30.17R
HOLYOKE        PTCLDY    68  59  73 S5        30.17R
FORT MORGAN    PTCLDY    72  49  43 CALM      30.22R
$$

COZ086-089-092>099-020400-
...SOUTHEAST COLORADO...

CITY           SKY/WX    TMP DP  RH WIND       PRES   REMARKS
PUEBLO         CLOUDY    65  59  81 SW7       30.26R
LA JUNTA       CLOUDY    66  59  78 SW12      30.23R
LAMAR          CLOUDY    70  60  70 W7        30.19R
SPRINGFIELD      N/A     67  54  63 W5        30.23R
$$



USA.gov is the U.S. government's official web portal to all federal, state and local government web resources and services.